Weather History for LICZ - May, 2013

Change the Weather History Date:

Saturday, May 11, 2013

  Actual Average Record
Temperature  
Mean Temperature 70 °F -  
Max Temperature 88 °F 81 °F 88 °F (2013)
Min Temperature 51 °F 56 °F 44 °F (2004)
Cooling Degree Days 4    
Growing Degree Days 20 (Base 50)    
Moisture  
Dew Point 50 °F    
Average Humidity 54    
Maximum Humidity 100    
Minimum Humidity 18    
Precipitation  
Precipitation 0.00 in 0.02 in - ()
Sea Level Pressure  
Sea Level Pressure 29.92 in    
Wind  
Wind Speed 7 mph ()    
Max Wind Speed 17 mph    
Max Gust Speed -    
Visibility 6.4 miles    
Events      
Averages and records for this station are not official NWS values.
T = Trace of Precipitation, MM = Missing Value Source: Averaged Metar Reports

Daily Weather History Graph

Daily Weather History Graph

Search for Another Location

Airport or City:

Trip Planner

Search our weather history database for the weather conditions in past years. The results will help you decide how hot, cold, wet, or windy it might be!

Date:

Astronomy

May. 11, 2013 Rise Set
Actual Time 5:54 AM CEST 7:59 PM CEST
Civil Twilight 5:26 AM CEST 8:27 PM CEST
Nautical Twilight 4:50 AM CEST 9:03 PM CEST
Astronomical Twilight 4:12 AM CEST 9:41 PM CEST
Moon 6:50 AM CEST (5/11) 9:24 PM CEST (5/11)
Length of Visible Light 15h 01m
Length of Day
14h 04m
New Moon, 2% of the Moon is Illuminated
May 11
New Moon
May 18
First Quarter
May 25
Full
May 31
Last Quarter
Jun 8
New

Hourly Weather History & Observations

Time (CEST) Temp. Dew Point Humidity Pressure Visibility Wind Dir Wind Speed Gust Speed Precip Events Conditions
12:55 AM 59.0 °F 59.0 °F 100% 30.01 in - West 5.8 mph - N/A   Clear
1:55 AM 59.0 °F 57.2 °F 94% 29.98 in - WNW 5.8 mph - N/A   Clear
2:00 AM 59 °F 58 °F 95% 29.98 in 6 mi WNW 5.8 mph - -  
2:55 AM 59.0 °F 57.2 °F 94% 29.95 in - WNW 6.9 mph - N/A   Clear
3:55 AM 55.4 °F 55.4 °F 100% 29.95 in - West 1.2 mph - N/A   Clear
4:55 AM 55.4 °F 55.4 °F 100% 29.95 in - West 2.3 mph - N/A   Clear
5:00 AM 56 °F 56 °F 99% 29.95 in 6 mi West 2.3 mph - -  
5:55 AM 53.6 °F 53.6 °F 100% 29.95 in 6.2 mi WNW 3.5 mph - N/A   Scattered Clouds
6:55 AM 55.4 °F 55.4 °F 100% 29.95 in 6.2 mi WNW 2.3 mph - N/A   Scattered Clouds
7:55 AM 62.6 °F 62.6 °F 100% 29.92 in 6.2 mi West 2.3 mph - N/A   Partly Cloudy
8:00 AM 63 °F 63 °F 100% 29.94 in 6 mi West 2.3 mph - -   Scattered Clouds
8:55 AM 75.2 °F 51.8 °F 44% 29.92 in 6.2 mi West 12.7 mph - N/A   Partly Cloudy
9:55 AM 80.6 °F 51.8 °F 37% 29.92 in 6.2 mi West 12.7 mph - N/A   Partly Cloudy
10:55 AM 84.2 °F 48.2 °F 29% 29.92 in 6.2 mi West 11.5 mph - N/A   Partly Cloudy
11:00 AM 85 °F 48 °F 18% 29.93 in 9 mi West 11.5 mph - -   Scattered Clouds
11:55 AM 86.0 °F 44.6 °F 23% 29.89 in 6.2 mi West 9.2 mph - N/A   Partly Cloudy
12:55 PM 87.8 °F 41.0 °F 19% 29.89 in 6.2 mi West 15.0 mph - N/A   Partly Cloudy
1:55 PM 82.4 °F 50.0 °F 32% 29.89 in 6.2 mi East 12.7 mph - N/A   Scattered Clouds
2:00 PM 82 °F 50 °F 22% 29.89 in 7 mi East 12.7 mph - -   Partly Cloudy
2:55 PM 82.4 °F 50.0 °F 32% 29.89 in 6.2 mi East 16.1 mph - N/A   Scattered Clouds
3:55 PM 80.6 °F 50.0 °F 34% 29.86 in 6.2 mi East 12.7 mph - N/A   Scattered Clouds
4:55 PM 80.6 °F 50.0 °F 34% 29.86 in 6.2 mi East 9.2 mph - N/A   Scattered Clouds
5:00 PM 81 °F 51 °F 24% 29.88 in 7 mi East 9.2 mph - -   Partly Cloudy
5:55 PM 80.6 °F 50.0 °F 34% 29.86 in 6.2 mi East 4.6 mph - N/A   Partly Cloudy
6:55 PM 78.8 °F 44.6 °F 30% 29.86 in 6.2 mi NW 15.0 mph - N/A   Partly Cloudy
7:55 PM 77.0 °F 46.4 °F 34% 29.89 in - NW 11.5 mph - N/A   Clear
8:00 PM 77 °F 46 °F 22% 29.89 in 7 mi NW 11.5 mph - -  
8:55 PM 71.6 °F 44.6 °F 38% 29.89 in - WNW 17.3 mph - N/A   Clear
9:55 PM 69.8 °F 41.0 °F 35% 29.92 in - West 12.7 mph - N/A   Clear
10:55 PM 68.0 °F 41.0 °F 37% 29.92 in - West 10.4 mph - N/A   Clear
11:00 PM 68 °F 40 °F 25% 29.93 in 6 mi West 10.4 mph - -  
11:55 PM 64.4 °F 39.2 °F 40% 29.92 in - West 4.6 mph - N/A   Clear